Tracking 22879 objects as of 23-Apr-2021
HD Live streaming from Space Station
objects crossing your sky now

ONEWEB-0044

Track ONEWEB-0044 now!
10-day predictions
ONEWEB-0044 is classified as:


NORAD ID: 45150
Int'l Code: 2020-008V
Perigee: 1,227.3 km
Apogee: 1,230.4 km
Inclination: 87.9 °
Period: 109.9 minutes
Semi major axis: 7599 km
RCS: Unknown
Launch date: February 6, 2020
Source: United Kingdom (UK)
Launch site: TYURATAM MISSILE AND SPACE COMPLEX (TTMTR)
aabbcc
Your satellite tracking list
Your tracking list is empty




NASA's NSSDC Master Catalog

Two Line Element Set (TLE):
1 45150U 20008V   21112.32515333 -.00000410  00000-0 -12118-2 0  9999
2 45150  87.8878  50.3881 0002083  65.4763 294.6582 13.10376928 62028
Source of the keplerian elements: AFSPC